Location: Roanoke
(37.2710°N, 79.9420°W)
Time: 04:29:04
(UTC-05:00)

Transit 2A - Pass Details

Date: 29 November 2019
Orbit: 602 x 957 km, 66.7° (Epoch: 11 December)

Event Time Altitude Azimuth Distance (km) Brightness Sun altitude
Rises 18:23:15 0° 340° (NNW) 2,861 9.0 -15.7°
Reaches altitude 10° 18:25:35 10° 348° (NNW) 1,968 8.1 -16.2°
Maximum altitude 18:29:43 39° 58° (ENE) 956 6.0 -17.0°
Enters shadow 18:31:06 31° 97° (E) 1,131 6.4 -17.2°
Drops below altitude 10° 18:34:03 10° 127° (SE) 2,073 - -17.8°
Sets 18:36:34 0° 135° (SE) 3,034 - -18.3°
